When you browse on this site, cookies collect data to enhance your experience and personalize the content and advertising you see.
Visit our Privacy Policy to learn more. By continuing to use the site, you agree to this use of cookies and data.
  • In Österreich
  • Länderverzeichnis
  • Für 7 Tage
  • Wassertemperatur
  • Wetterkarte
  • News
  • Widgets
  • user-avatar
    Anmelden

    Stündliche Wetter Malahovo

    Heute, 26 Mai, Dienstag

    Zeit Temperatur Niederschläge Wind Luftdruck Luftfeuchtigkeit
    00:00 +10°C° 0 mm 5 m/S 756 mmHg 78%
    01:00 +9°C° 0 mm 5 m/S 756 mmHg 79%
    02:00 +9°C° 0 mm 5 m/S 756 mmHg 78%
    03:00 +9°C° 0 mm 6 m/S 756 mmHg 76%
    04:00 +10°C° 0 mm 7 m/S 756 mmHg 72%
    05:00 +10°C° 0 mm 8 m/S 756 mmHg 70%
    06:00 +11°C° 0 mm 8 m/S 755 mmHg 68%
    07:00 +12°C° 0 mm 9 m/S 755 mmHg 65%
    08:00 +15°C° 0 mm 9 m/S 755 mmHg 62%
    09:00 +16°C° 0 mm 9 m/S 754 mmHg 60%
    10:00 +18°C° 0 mm 9 m/S 754 mmHg 58%
    11:00 +20°C° 0 mm 8 m/S 754 mmHg 57%
    12:00 +21°C° 0 mm 8 m/S 753 mmHg 57%
    13:00 +23°C° 0 mm 8 m/S 753 mmHg 56%
    14:00 +24°C° 0 mm 8 m/S 753 mmHg 57%
    15:00 +24°C° 0 mm 8 m/S 752 mmHg 58%
    16:00 +26°C° 0 mm 9 m/S 752 mmHg 58%
    17:00 +24°C° 0 mm 8 m/S 752 mmHg 61%
    18:00 +23°C° 0 mm 8 m/S 751 mmHg 65%
    19:00 +23°C° 0 mm 7 m/S 751 mmHg 68%
    20:00 +22°C° 0 mm 8 m/S 751 mmHg 66%
    21:00 +22°C° 0 mm 9 m/S 750 mmHg 64%
    22:00 +21°C° 0 mm 10 m/S 750 mmHg 62%
    23:00 +21°C° 0 mm 11 m/S 750 mmHg 62%

    Morgen, 27 Mai, Mittwoch

    Zeit Temperatur Niederschläge Wind Luftdruck Luftfeuchtigkeit
    00:00 +19°C° 0 mm 11 m/S 749 mmHg 61%
    01:00 +19°C° 0 mm 11 m/S 749 mmHg 60%
    02:00 +18°C° 0 mm 11 m/S 749 mmHg 61%
    03:00 +18°C° 0 mm 11 m/S 749 mmHg 62%
    04:00 +17°C° 0 mm 11 m/S 749 mmHg 63%
    05:00 +18°C° 0 mm 11 m/S 749 mmHg 64%
    06:00 +18°C° 0 mm 10 m/S 749 mmHg 65%
    07:00 +18°C° 0 mm 10 m/S 749 mmHg 66%
    08:00 +21°C° 0 mm 10 m/S 749 mmHg 63%
    09:00 +23°C° 0 mm 9 m/S 749 mmHg 61%
    10:00 +24°C° 0 mm 9 m/S 749 mmHg 58%
    11:00 +27°C° 0 mm 8 m/S 749 mmHg 56%
    12:00 +29°C° 0 mm 7 m/S 749 mmHg 53%
    13:00 +32°C° 0 mm 7 m/S 749 mmHg 51%
    14:00 +32°C° 0 mm 6 m/S 749 mmHg 49%
    15:00 +32°C° 0 mm 5 m/S 749 mmHg 47%
    16:00 +33°C° 0 mm 5 m/S 749 mmHg 46%
    17:00 +30°C° 0 mm 4 m/S 749 mmHg 52%
    18:00 +29°C° 0 mm 4 m/S 749 mmHg 57%
    19:00 +27°C° 0 mm 3 m/S 749 mmHg 63%
    20:00 +25°C° 0 mm 3 m/S 749 mmHg 71%
    21:00 +24°C° 0 mm 3 m/S 749 mmHg 78%
    22:00 +21°C° 0 mm 3 m/S 749 mmHg 86%
    23:00 +20°C° 0 mm 3 m/S 749 mmHg 89%

    übermorgen, 28 Mai, Donnerstag

    Zeit Temperatur Niederschläge Wind Luftdruck Luftfeuchtigkeit
    00:00 +19°C° 0 mm 3 m/S 749 mmHg 92%
    01:00 +18°C° 0 mm 3 m/S 749 mmHg 95%
    02:00 +18°C° 0 mm 3 m/S 749 mmHg 95%
    03:00 +17°C° 0 mm 3 m/S 749 mmHg 96%
    04:00 +17°C° 0 mm 3 m/S 749 mmHg 96%
    05:00 +17°C° 0 mm 4 m/S 749 mmHg 93%
    06:00 +18°C° 0 mm 4 m/S 749 mmHg 89%
    07:00 +17°C° 0 mm 5 m/S 749 mmHg 86%
    08:00 +20°C° 0 mm 5 m/S 750 mmHg 81%
    09:00 +21°C° 0 mm 5 m/S 750 mmHg 77%
    10:00 +22°C° 0 mm 5 m/S 750 mmHg 72%
    11:00 +22°C° 0 mm 5 m/S 750 mmHg 69%
    12:00 +23°C° 0 mm 5 m/S 750 mmHg 66%
    13:00 +23°C° 0 mm 5 m/S 750 mmHg 63%
    14:00 +25°C° 0 mm 5 m/S 750 mmHg 61%
    15:00 +25°C° 0 mm 5 m/S 750 mmHg 60%
    16:00 +25°C° 0 mm 5 m/S 750 mmHg 58%
    17:00 +23°C° 0 mm 5 m/S 750 mmHg 62%
    18:00 +22°C° 0 mm 5 m/S 750 mmHg 66%
    19:00 +21°C° 0 mm 5 m/S 750 mmHg 70%
    20:00 +20°C° 0 mm 5 m/S 750 mmHg 75%
    21:00 +17°C° 0 mm 5 m/S 750 mmHg 80%
    22:00 +16°C° 0 mm 5 m/S 750 mmHg 85%
    23:00 +15°C° 0 mm 5 m/S 750 mmHg 85%

    29 Mai, Freitag

    Zeit Temperatur Niederschläge Wind Luftdruck Luftfeuchtigkeit
    00:00 +14°C° 0 mm 5 m/S 750 mmHg 86%
    01:00 +13°C° 0 mm 5 m/S 750 mmHg 87%
    02:00 +13°C° 0 mm 5 m/S 750 mmHg 87%
    03:00 +12°C° 0 mm 5 m/S 750 mmHg 87%
    04:00 +12°C° 0 mm 5 m/S 750 mmHg 88%
    05:00 +13°C° 0 mm 6 m/S 750 mmHg 84%
    06:00 +14°C° 0 mm 6 m/S 750 mmHg 81%
    07:00 +15°C° 0 mm 7 m/S 749 mmHg 77%
    08:00 +16°C° 0 mm 7 m/S 749 mmHg 73%
    09:00 +18°C° 0 mm 7 m/S 749 mmHg 69%
    10:00 +21°C° 0 mm 7 m/S 749 mmHg 65%
    11:00 +22°C° 0 mm 7 m/S 749 mmHg 63%
    12:00 +23°C° 0 mm 7 m/S 749 mmHg 62%
    13:00 +26°C° 0 mm 7 m/S 749 mmHg 61%
    14:00 +26°C° 0 mm 6 m/S 749 mmHg 62%
    15:00 +26°C° 0 mm 6 m/S 748 mmHg 62%
    16:00 +27°C° 0 mm 6 m/S 748 mmHg 62%
    17:00 +26°C° 0 mm 6 m/S 748 mmHg 65%
    18:00 +26°C° 0 mm 5 m/S 748 mmHg 68%
    19:00 +25°C° 0 mm 5 m/S 748 mmHg 71%
    20:00 +22°C° 0 mm 5 m/S 748 mmHg 71%
    21:00 +20°C° 0 mm 6 m/S 748 mmHg 72%
    22:00 +19°C° 0 mm 6 m/S 748 mmHg 72%
    23:00 +17°C° 0 mm 6 m/S 748 mmHg 72%

    30 Mai, Samstag

    Zeit Temperatur Niederschläge Wind Luftdruck Luftfeuchtigkeit
    00:00 +17°C° 0 mm 5 m/S 747 mmHg 72%
    01:00 +17°C° 0 mm 5 m/S 747 mmHg 72%
    02:00 +17°C° 0 mm 5 m/S 747 mmHg 69%
    03:00 +16°C° 0 mm 5 m/S 747 mmHg 67%
    04:00 +16°C° 0 mm 6 m/S 746 mmHg 64%
    05:00 +17°C° 0 mm 6 m/S 747 mmHg 64%
    06:00 +18°C° 0 mm 7 m/S 747 mmHg 64%
    07:00 +20°C° 0 mm 7 m/S 747 mmHg 65%
    08:00 +21°C° 0 mm 7 m/S 746 mmHg 64%
    09:00 +22°C° 0 mm 8 m/S 746 mmHg 63%
    10:00 +24°C° 0 mm 8 m/S 746 mmHg 62%
    11:00 +26°C° 0 mm 8 m/S 746 mmHg 60%
    12:00 +28°C° 0 mm 8 m/S 746 mmHg 58%
    13:00 +29°C° 0 mm 8 m/S 746 mmHg 56%
    14:00 +31°C° 0 mm 8 m/S 745 mmHg 55%
    15:00 +30°C° 0 mm 7 m/S 745 mmHg 54%
    16:00 +32°C° 0 mm 7 m/S 745 mmHg 54%
    17:00 +30°C° 0 mm 6 m/S 744 mmHg 58%
    18:00 +29°C° 0 mm 6 m/S 744 mmHg 62%
    19:00 +28°C° 0 mm 6 m/S 744 mmHg 67%
    20:00 +28°C° 0 mm 6 m/S 744 mmHg 66%
    21:00 +27°C° 0 mm 6 m/S 743 mmHg 66%
    22:00 +27°C° 0 mm 6 m/S 743 mmHg 66%
    23:00 +27°C° 0 mm 5 m/S 743 mmHg 59%

    31 Mai, Sonntag

    Zeit Temperatur Niederschläge Wind Luftdruck Luftfeuchtigkeit
    00:00 +26°C° 0 mm 4 m/S 743 mmHg 52%
    01:00 +26°C° 0 mm 3 m/S 743 mmHg 45%
    02:00 +25°C° 0 mm 4 m/S 743 mmHg 44%
    03:00 +23°C° 0 mm 4 m/S 743 mmHg 44%
    04:00 +23°C° 0 mm 5 m/S 743 mmHg 43%
    05:00 +23°C° 0 mm 5 m/S 743 mmHg 53%
    06:00 +22°C° 0 mm 5 m/S 744 mmHg 64%
    07:00 +22°C° 0 mm 4 m/S 744 mmHg 74%
    08:00 +23°C° 0 mm 5 m/S 744 mmHg 70%
    09:00 +26°C° 0 mm 5 m/S 745 mmHg 66%
    10:00 +27°C° 0 mm 5 m/S 745 mmHg 61%
    11:00 +27°C° 0 mm 6 m/S 745 mmHg 57%
    12:00 +28°C° 0 mm 6 m/S 745 mmHg 53%
    13:00 +28°C° 0 mm 6 m/S 745 mmHg 48%
    14:00 +28°C° 0 mm 6 m/S 745 mmHg 48%
    15:00 +28°C° 0 mm 6 m/S 745 mmHg 47%
    16:00 +28°C° 0 mm 6 m/S 745 mmHg 46%
    17:00 +27°C° 0 mm 6 m/S 745 mmHg 51%
    18:00 +26°C° 0 mm 5 m/S 745 mmHg 56%
    19:00 +23°C° 0 mm 5 m/S 745 mmHg 61%
    20:00 +22°C° 0 mm 4 m/S 745 mmHg 65%
    21:00 +21°C° 0 mm 4 m/S 745 mmHg 69%
    22:00 +19°C° 0 mm 4 m/S 745 mmHg 73%
    23:00 +19°C° 0 mm 4 m/S 745 mmHg 75%
    Mehr zeigen